GW5839 Weather Reports


time (UTC)temp
F
wind
direction
speed
knots
gust
knots
rain 1hr
in
rain 24hr
in
rain mn
in
humidity
%
barometer
mb
20260504002515 76 0.0 0.0 0.00 0.00 0.00 44 1011.7
20260504002008 76 0.0 0.0 0.00 0.00 0.00 44 1011.7
20260504001517 77 0.0 0.0 0.00 0.00 0.00 43 1012.0
20260504001016 77 0.0 0.0 0.00 0.00 0.00 44 1012.0
20260504000013 78 0.0 0.0 0.00 0.00 0.00 45 1012.0
20260503235508 78 0.0 0.0 0.00 0.00 0.00 45 1012.0
20260503235009 78 0.0 0.0 0.00 0.00 0.00 46 1012.4
20260503234535 78 0.0 0.0 0.00 0.00 0.00 45 1012.4
20260503234017 79 0.0 0.0 0.00 0.00 0.00 46 1011.3
20260503233510 78 0.0 0.0 0.00 0.00 0.00 47 1011.7
20260503233016 78 0.0 0.0 0.00 0.00 0.00 46 1011.7
20260503232507 78 0.0 0.0 0.00 0.00 0.00 46 1011.7
20260503232030 78 0.0 0.0 0.00 0.00 0.00 46 1012.0
20260503231513 78 0.0 0.0 0.00 0.00 0.00 46 1012.0
20260503231011 78 0.0 0.0 0.00 0.00 0.00 45 1012.4
20260503230545 77 0.0 0.0 0.00 0.00 0.00 47 1012.4
20260503225511 77 0.0 0.0 0.00 0.00 0.00 47 1013.4
20260503225011 77 0.0 0.0 0.00 0.00 0.00 47 1013.8
20260503224515 76 0.0 0.0 0.00 0.00 0.00 47 1013.8
20260503224023 76 0.0 0.0 0.00 0.00 0.00 47 1013.4
20260503223514 76 0.0 0.0 0.00 0.00 0.00 47 1014.1
20260503223022 76 0.0 0.0 0.00 0.00 0.00 47 1015.1
20260503222510 77 0.0 0.0 0.00 0.00 0.00 47 1013.8
20260503222011 77 0.0 0.0 0.00 0.00 0.00 47 1014.1
20260503221524 77 0.0 0.0 0.00 0.00 0.00 48 1014.4
20260503221010 76 0.0 0.0 0.00 0.00 0.00 48 1015.5
20260503220511 76 0.0 0.0 0.00 0.00 0.00 49 1014.4
20260503220014 77 0.0 0.0 0.00 0.00 0.00 47 1015.1
20260503215534 77 0.0 0.0 0.00 0.00 0.00 48 1013.8
20260503215025 76 0.0 0.0 0.00 0.00 0.00 49 1013.1
20260503214508 76 0.0 0.0 0.00 0.00 0.00 49 1013.1
20260503214009 77 0.0 0.0 0.00 0.00 0.00 48 1013.1
20260503213512 78 0.0 0.0 0.00 0.00 0.00 47 1013.1
20260503213021 79 0.0 0.0 0.00 0.00 0.00 48 1013.1
20260503212517 78 0.0 0.0 0.00 0.00 0.00 47 1013.1
20260503212031 77 0.0 0.0 0.00 0.00 0.00 47 1013.1
20260503211507 77 0.0 0.0 0.00 0.00 0.00 46 1013.1
20260503211009 78 0.0 0.0 0.00 0.00 0.00 45 1013.1
20260503210512 78 0.0 0.0 0.00 0.00 0.00 45 1013.1
20260503210015 77 0.0 0.0 0.00 0.00 0.00 45 1013.4
20260503205526 78 0.0 0.0 0.00 0.00 0.00 44 1013.4
20260503205018 78 0.0 0.0 0.00 0.00 0.00 46 1013.4
20260503204506 77 0.0 0.0 0.00 0.00 0.00 45 1013.4
20260503204021 78 0.0 0.0 0.00 0.00 0.00 45 1013.4
20260503203526 77 0.0 0.0 0.00 0.00 0.00 46 1013.4
20260503203007 77 0.0 0.0 0.00 0.00 0.00 45 1013.4
20260503202516 77 0.0 0.0 0.00 0.00 0.00 46 1013.4
20260503202014 76 0.0 0.0 0.00 0.00 0.00 46 1013.4
20260503201558 76 0.0 0.0 0.00 0.00 0.00 46 1013.4
20260503201014 76 0.0 0.0 0.00 0.00 0.00 45 1013.8
20260503200514 76 0.0 0.0 0.00 0.00 0.00 45 1013.8
20260503200018 75 0.0 0.0 0.00 0.00 0.00 45 1013.8
20260503195510 76 0.0 0.0 0.00 0.00 0.00 45 1014.1
20260503195015 76 0.0 0.0 0.00 0.00 0.00 46 1014.1
20260503194507 75 0.0 0.0 0.00 0.00 0.00 49 1014.1
20260503194022 74 0.0 0.0 0.00 0.00 0.00 51 1014.4
20260503193533 75 0.0 0.0 0.00 0.00 0.00 50 1014.1
20260503193026 75 0.0 0.0 0.00 0.00 0.00 50 1014.4
20260503192511 75 0.0 0.0 0.00 0.00 0.00 51 1014.4
20260503192016 74 0.0 0.0 0.00 0.00 0.00 50 1014.4
20260503191512 74 0.0 0.0 0.00 0.00 0.00 50 1014.4
20260503191011 73 0.0 0.0 0.00 0.00 0.00 52 1014.8
20260503190520 73 0.0 0.0 0.00 0.00 0.00 52 1014.8
20260503190008 73 0.0 0.0 0.00 0.00 0.00 52 1014.8
20260503185546 72 0.0 0.0 0.00 0.00 0.00 54 1014.8
20260503185015 72 0.0 0.0 0.00 0.00 0.00 54 1015.1
20260503184508 72 0.0 0.0 0.00 0.00 0.00 54 1015.1
20260503184013 72 0.0 0.0 0.00 0.00 0.00 55 1015.1
20260503183520 71 0.0 0.0 0.00 0.00 0.00 54 1015.5
20260503183008 71 0.0 0.0 0.00 0.00 0.00 55 1015.1
20260503182512 70 0.0 0.0 0.00 0.00 0.00 56 1015.5
20260503182016 70 0.0 0.0 0.00 0.00 0.00 56 1015.1
20260503181554 71 0.0 0.0 0.00 0.00 0.00 56 1015.1
20260503181012 71 0.0 0.0 0.00 0.00 0.00 56 1015.1
20260503180532 70 0.0 0.0 0.00 0.00 0.00 57 1015.1
20260503180011 70 0.0 0.0 0.00 0.00 0.00 56 1014.8
20260503175533 71 0.0 0.0 0.00 0.00 0.00 55 1015.1
20260503175018 70 0.0 0.0 0.00 0.00 0.00 56 1015.5
20260503174510 70 0.0 0.0 0.00 0.00 0.00 56 1015.5
20260503174016 69 0.0 0.0 0.00 0.00 0.00 57 1015.5
20260503173515 68 0.0 0.0 0.00 0.00 0.00 57 1015.8
20260503173008 68 0.0 0.0 0.00 0.00 0.00 60 1015.8
20260503172511 68 0.0 0.0 0.00 0.00 0.00 60 1015.5
20260503172015 67 0.0 0.0 0.00 0.00 0.00 61 1015.8
20260503171507 67 0.0 0.0 0.00 0.00 0.00 60 1015.8
20260503171010 67 0.0 0.0 0.00 0.00 0.00 59 1015.8
20260503170520 67 0.0 0.0 0.00 0.00 0.00 59 1015.8
20260503151010 61 0.0 0.0 0.00 0.00 0.00 72 1016.2
20260503150532 60 0.0 0.0 0.00 0.00 0.00 72 1016.2
20260503131017 56 0.0 0.0 0.00 0.00 0.00 73 1015.8
20260503130512 56 0.0 0.0 0.00 0.00 0.00 74 1015.8
20260503081053 58 0.0 0.0 0.00 0.00 0.00 63 1016.2
20260503072556 61 0.0 0.0 0.00 0.00 0.00 56 1016.2
20260503071026 62 0.0 0.0 0.00 0.00 0.00 55 1016.2
20260503070514 62 0.0 0.0 0.00 0.00 0.00 55 1015.8
20260503055012 62 0.0 0.0 0.00 0.00 0.00 57 1015.8
20260503054526 62 0.0 0.0 0.00 0.00 0.00 56 1015.8
20260503054033 62 0.0 0.0 0.00 0.00 0.00 56 1015.8
20260503053033 62 0.0 0.0 0.00 0.00 0.00 56 1015.8
20260503052532 62 0.0 0.0 0.00 0.00 0.00 56 1016.2
20260503052031 63 0.0 0.0 0.00 0.00 0.00 56 1015.8
20260503051514 63 0.0 0.0 0.00 0.00 0.00 56 1015.8
20260503051011 62 0.0 0.0 0.00 0.00 0.00 57 1015.8
20260503045527 62 0.0 0.0 0.00 0.00 0.00 57 1015.8
20260503044031 64 0.0 0.0 0.00 0.00 0.00 54 1015.5
20260503043532 64 0.0 0.0 0.00 0.00 0.00 54 1015.5
20260503043014 64 0.0 0.0 0.00 0.00 0.00 54 1015.5
20260503042530 64 0.0 0.0 0.00 0.00 0.00 54 1015.5
20260503042056 64 0.0 0.0 0.00 0.00 0.00 54 1015.5
20260503041508 65 0.0 0.0 0.00 0.00 0.00 54 1015.5
20260503041011 65 0.0 0.0 0.00 0.00 0.00 54 1015.1
20260503040519 65 0.0 0.0 0.00 0.00 0.00 54 1015.1
20260503040010 64 0.0 0.0 0.00 0.00 0.00 54 1015.1
20260503035544 64 0.0 0.0 0.00 0.00 0.00 55 1015.1
20260503035020 64 0.0 0.0 0.00 0.00 0.00 55 1015.1
20260503034508 64 0.0 0.0 0.00 0.00 0.00 55 1015.1
20260503034013 65 0.0 0.0 0.00 0.00 0.00 55 1014.8
20260503033545 65 0.0 0.0 0.00 0.00 0.00 55 1014.8
20260503032520 65 0.0 0.0 0.00 0.00 0.00 55 1014.8
20260503032008 66 0.0 0.0 0.00 0.00 0.00 55 1014.8
20260503031511 66 0.0 0.0 0.00 0.00 0.00 55 1014.4
20260503031021 65 0.0 0.0 0.00 0.00 0.00 56 1014.8
20260503030525 66 0.0 0.0 0.00 0.00 0.00 57 1014.4
20260503030035 66 0.0 0.0 0.00 0.00 0.00 57 1014.4
20260503025518 66 0.0 0.0 0.00 0.00 0.00 57 1014.4
20260503025040 66 0.0 0.0 0.00 0.00 0.00 57 1014.4
20260503024512 66 0.0 0.0 0.00 0.00 0.00 57 1014.4
20260503024016 67 0.0 0.0 0.00 0.00 0.00 56 1014.4
20260503023529 67 0.0 0.0 0.00 0.00 0.00 56 1014.4
20260503023014 67 0.0 0.0 0.00 0.00 0.00 56 1014.4
20260503022515 67 0.0 0.0 0.00 0.00 0.00 56 1014.4
20260503022012 68 0.0 0.0 0.00 0.00 0.00 56 1014.4
20260503021511 68 0.0 0.0 0.00 0.00 0.00 56 1014.4
20260503021017 68 0.0 0.0 0.00 0.00 0.00 56 1014.4
20260503020519 68 0.0 0.0 0.00 0.00 0.00 57 1014.4
20260503020011 68 0.0 0.0 0.00 0.00 0.00 57 1014.4
20260503015515 68 0.0 0.0 0.00 0.00 0.00 57 1014.4
20260503015009 68 0.0 0.0 0.00 0.00 0.00 57 1014.4
20260503014510 69 0.0 0.0 0.00 0.00 0.00 57 1014.4
20260503014015 69 0.0 0.0 0.00 0.00 0.00 56 1014.4
20260503013507 69 0.0 0.0 0.00 0.00 0.00 56 1014.4
20260503013010 69 0.0 0.0 0.00 0.00 0.00 56 1014.4
20260503012513 69 0.0 0.0 0.00 0.00 0.00 56 1014.4
20260503012007 69 0.0 0.0 0.00 0.00 0.00 57 1014.4
20260503011510 69 0.0 0.0 0.00 0.00 0.00 56 1014.4
20260503011013 70 0.0 0.0 0.00 0.00 0.00 56 1014.4
20260503010506 70 0.0 0.0 0.00 0.00 0.00 55 1014.4
20260503010015 71 0.0 0.0 0.00 0.00 0.00 53 1014.4
20260503005512 71 0.0 0.0 0.00 0.00 0.00 53 1014.4
20260503005023 71 0.0 0.0 0.00 0.00 0.00 53 1014.4
20260503004509 71 0.0 0.0 0.00 0.00 0.00 54 1014.8
20260503004014 71 0.0 0.0 0.00 0.00 0.00 54 1014.8
20260503003517 71 0.0 0.0 0.00 0.00 0.00 54 1014.8
20260503003024 71 0.0 0.0 0.00 0.00 0.00 55 1014.8